Location: Campo Claro
(10.4907°N, 66.8285°W)
Time: 07:47:10
(UTC+00:00)

Meteor 1-19 Rocket - Pass Details

Date: 08 December 2021
Orbit: 808 x 927 km, 81.2° (Epoch: 24 January)

Event Time Altitude Azimuth Distance (km) Brightness Sun altitude
Rises 23:05:47 0° 180° (S) 3,561 7.7 -14.6°
Reaches altitude 10° 23:08:16 10° 178° (S) 2,622 7.0 -15.2°
Maximum altitude 23:14:15 72° 95° (E) 968 4.3 -16.6°
Drops below altitude 10° 23:20:12 10° 11° (N) 2,600 6.4 -17.9°
Enters shadow 23:21:13 - 10° (N) 2,987 6.8 -18.2°
